Location: Newark
(34.3481°N, 134.0494°E)
Time: 21:21:29
(UTC+00:00)

Vanguard 2 Rocket - Visible Passes

Search period start: 21 January 2020 00:00
Search period end: 31 January 2020 00:00
Orbit: 554 x 3326 km, 32.9° (Epoch: 21 January)

Date Brightness Start Highest point End Pass type
(mag) Time Alt. Az. Time Alt. Az. Time Alt. Az.
21 Jan 8.0 19:37:51 26° SSE 19:38:14 26° SSE 19:43:05 10° E visible
22 Jan 7.1 20:47:47 18° WSW 20:51:18 60° SSE 20:58:36 10° E visible
23 Jan 7.2 19:51:51 40° SSE 19:52:07 41° SSE 19:57:38 10° E visible
24 Jan 9.0 18:55:53 15° ESE 18:55:53 15° ESE 18:56:59 10° E visible
24 Jan 6.8 21:01:42 16° WSW 21:05:28 74° S 21:12:52 10° E visible
25 Jan 6.5 20:05:41 55° SSW 20:06:11 58° SSE 20:12:00 10° E visible
26 Jan 8.6 19:09:39 21° E 19:09:39 21° E 19:11:35 10° E visible
26 Jan 6.8 21:15:28 12° W 21:19:44 79° S 21:27:07 10° E visible
27 Jan 6.3 20:19:25 52° WSW 20:20:23 72° S 20:26:16 10° E visible
28 Jan 8.0 19:23:20 28° E 19:23:20 28° E 19:25:56 10° E visible
28 Jan 6.8 21:29:27 10° W 21:34:00 74° S 21:41:20 10° ESE visible
29 Jan 6.3 20:33:04 39° WSW 20:34:39 77° S 20:40:31 10° E visible
30 Jan 7.3 19:36:58 39° E 19:36:58 39° E 19:40:13 10° E visible
